Temp
12 11 10 10 9 9 10 10 9 9 10 10 10 10 11 11 12 12 12 12 12 12 11 11 11 11 10 10 10 10 10 9
12 13 10 9 9 9 11 10 10 10 10 10 11 11 11 12 11 12 12 12 13 12 11 11 10 11 10 10 10 9 9 9
11 12 11 10 11 10 11 11 10 11 11 11 10 11 11 11 11 11 12 13 12 12 12 11 11 11 10 10 10 9 9 9
12 13 12 12 12 12 11 11 10 10 11 10 11 11 11 12 12 12 12 12 11 11 11 11 11 11 11 10 10 9 9 9
13 13 13 12 12 12 12 11 11 11 11 11 12 11 12 12 12 12 12 12 12 11 12 12 12 11 11 10 9 9 8 8
14 14 14 14 12 12 12 11 11 11 11 12 12 12 12 12 12 12 12 12 12 12 11 11 11 10 9 10 10 9 8 7
16 15 15 14 14 13 13 12 12 12 13 12 12 13 13 12 12 12 12 12 12 12 12 12 12 11 11 10 9 8 8 7
16 15 15 14 14 14 14 13 12 13 13 13 13 13 13 13 13 13 13 12 12 12 12 12 11 11 9 9 8 9 9 7
18 17 16 16 15 14 14 14 13 13 13 13 14 14 14 13 13 13 13 13 13 13 12 11 10 9 9 9 8 8 7 6
19 18 18 16 16 15 15 14 14 14 14 14 14 14 14 14 13 13 13 13 13 12 12 11 10 9 9 9 8 8 7 6
21 19 18 18 18 17 16 16 15 15 14 14 14 14 14 14 14 14 13 13 12 11 10 10 10 9 8 8 8 7 6 5
21 21 20 20 19 18 18 17 16 16 15 15 14 14 14 14 13 12 12 12 11 12 10 9 9 8 9 8 8 7 5 5
22 21 20 19 19 19 18 18 17 17 16 15 15 14 14 13 12 11 11 9 10 9 9 9 9 8 8 8 7 5 5 4
21 21 20 20 19 18 17 16 15 14 15 14 15 15 13 13 11 10 10 10 10 9 8 8 8 8 8 6 5 4 4 3
21 21 21 19 19 18 18 17 15 16 13 12 15 16 14 12 10 10 9 9 9 8 8 8 8 7 6 5 4 4 3 2
21 20 19 19 19 18 16 17 18 16 16 14 16 12 11 10 9 9 8 9 8 8 8 7 6 5 4 4 4 3 2 1
21 19 19 18 19 19 16 12 12 13 14 14 11 10 10 9 9 9 8 8 8 7 6 5 5 4 3 3 2 1 1 0
20 18 18 18 17 17 17 14 11 10 10 10 10 10 9 9 8 8 7 7 6 6 5 4 3 3 2 1 1 0 -0 -1
18 18 17 16 16 16 15 13 12 10 10 9 9 9 8 8 6 6 5 5 5 5 3 2 2 1 1 0 0 -0 -1 -1
Height
1487 1488 1489 1492 1493 1497 1499 1501 1506 1510 1518 1522 1526 1531 1536 1539 1541 1545 1550 1552 1557 1558 1560 1563 1564 1567 1569 1570 1572 1573 1575 1576
1486 1487 1491 1493 1495 1497 1500 1503 1506 1512 1515 1520 1525 1528 1532 1536 1540 1544 1547 1551 1553 1555 1557 1559 1562 1563 1566 1567 1569 1569 1570 1572
1486 1488 1492 1493 1495 1498 1501 1505 1508 1512 1516 1520 1524 1528 1532 1536 1539 1542 1545 1547 1549 1551 1554 1556 1559 1560 1563 1563 1565 1565 1565 1566
1484 1485 1489 1492 1495 1497 1500 1504 1508 1511 1516 1520 1526 1529 1532 1534 1535 1538 1539 1542 1545 1547 1550 1553 1553 1555 1556 1558 1559 1559 1560 1562
1476 1480 1484 1487 1491 1495 1498 1502 1506 1510 1514 1517 1520 1522 1524 1526 1529 1532 1535 1537 1538 1541 1543 1545 1544 1545 1547 1551 1552 1554 1556 1556
1469 1472 1476 1482 1486 1489 1494 1499 1503 1507 1510 1511 1515 1517 1519 1523 1527 1528 1529 1531 1533 1536 1538 1540 1540 1541 1544 1544 1544 1546 1550 1547
1461 1466 1471 1475 1481 1485 1490 1494 1497 1501 1504 1506 1508 1511 1516 1519 1520 1522 1524 1526 1528 1530 1531 1532 1534 1535 1537 1540 1540 1541 1543 1542
1458 1462 1466 1470 1473 1479 1484 1488 1490 1494 1498 1500 1502 1504 1507 1510 1513 1516 1518 1519 1521 1522 1524 1526 1528 1531 1533 1534 1535 1534 1534 1536
1449 1453 1456 1461 1466 1471 1477 1481 1484 1485 1487 1488 1492 1495 1499 1502 1505 1504 1506 1510 1516 1519 1521 1523 1524 1526 1528 1528 1528 1528 1529 1531
1443 1446 1449 1453 1458 1462 1465 1469 1473 1477 1480 1483 1485 1488 1491 1492 1496 1500 1502 1508 1510 1514 1516 1517 1517 1520 1522 1522 1522 1523 1524 1527
1438 1440 1443 1447 1449 1451 1454 1457 1463 1469 1475 1479 1481 1483 1486 1491 1494 1494 1499 1503 1506 1507 1507 1509 1511 1513 1514 1515 1516 1518 1519 1522
1437 1439 1439 1439 1442 1444 1446 1453 1458 1462 1466 1468 1474 1480 1482 1486 1488 1493 1496 1495 1498 1499 1502 1502 1504 1506 1507 1509 1511 1512 1515 1517
1433 1436 1437 1439 1438 1438 1441 1446 1447 1447 1451 1458 1466 1470 1475 1483 1483 1476 1482 1489 1491 1492 1494 1496 1498 1500 1502 1504 1506 1507 1510 1513
1430 1432 1435 1437 1437 1440 1442 1446 1455 1459 1459 1464 1458 1459 1460 1471 1471 1474 1477 1483 1485 1487 1490 1491 1493 1495 1496 1499 1501 1504 1507 1509
1426 1429 1432 1434 1437 1435 1439 1442 1450 1450 1449 1457 1456 1457 1460 1466 1470 1472 1473 1478 1480 1482 1485 1486 1488 1490 1492 1494 1498 1501 1503 1505
1423 1424 1428 1431 1433 1435 1433 1437 1438 1438 1441 1448 1451 1452 1457 1459 1464 1468 1470 1473 1476 1477 1480 1481 1483 1487 1489 1492 1495 1497 1500 1502
1421 1422 1425 1427 1431 1432 1433 1435 1441 1443 1445 1446 1448 1451 1453 1456 1460 1465 1465 1468 1471 1473 1475 1478 1480 1484 1487 1489 1492 1495 1498 1499
1419 1422 1425 1426 1427 1429 1431 1434 1436 1440 1443 1446 1448 1450 1452 1455 1456 1457 1461 1465 1468 1471 1473 1476 1479 1483 1485 1488 1490 1492 1493 1495
1414 1418 1420 1423 1425 1426 1427 1430 1432 1435 1437 1439 1443 1445 1448 1450 1452 1456 1459 1463 1467 1470 1472 1476 1479 1481 1483 1485 1487 1488 1489 1490
Wind_Speed
15 14 14 18 21 25 23 32 37 38 37 31 31 24 25 20 23 23 21 21 21 19 19 18 20 20 20 20 19 16 13 14
19 18 19 22 23 28 35 36 37 35 32 34 36 31 24 24 24 24 22 22 25 23 22 23 22 21 21 22 20 19 19 20
25 26 27 28 35 40 34 34 34 34 40 31 26 28 27 26 26 26 24 22 21 23 24 24 25 24 23 23 24 25 24 25
35 30 34 34 35 35 33 32 31 33 33 29 31 27 25 27 30 27 24 24 25 23 21 25 27 25 22 24 26 27 30 28
41 36 36 36 36 33 32 32 31 33 32 33 33 32 30 29 30 29 27 28 28 29 29 29 31 28 25 24 25 27 30 28
44 39 37 35 35 35 34 35 37 37 34 30 30 30 30 27 28 28 31 32 32 30 30 32 31 31 28 24 21 28 34 30
44 40 37 35 36 35 34 39 36 33 33 38 35 32 32 34 31 33 34 35 34 33 30 29 29 29 26 25 24 28 35 33
43 46 47 43 44 45 41 40 41 39 37 36 41 38 36 37 34 35 36 37 37 35 32 29 27 26 25 24 28 27 30 33
48 49 47 47 48 48 47 44 46 47 45 44 43 42 39 40 37 38 39 41 37 35 34 26 22 22 25 27 26 29 31 30
45 49 49 48 47 48 47 48 48 49 49 48 43 43 42 44 39 40 39 37 33 33 34 25 23 24 25 22 23 25 28 27
45 46 49 48 47 45 46 45 45 46 48 48 47 44 42 38 40 37 40 36 26 36 38 27 25 22 21 21 21 23 24 23
6 20 43 46 48 48 47 47 45 43 42 44 46 45 42 38 37 33 24 31 36 37 32 30 23 20 22 22 20 22 20 20
5 4 5 36 47 47 48 46 47 45 41 39 41 42 43 31 36 30 32 31 26 22 21 22 21 22 20 21 20 19 19 20
14 8 6 8 28 38 41 40 34 24 20 30 33 31 25 28 33 39 29 26 22 21 18 17 18 18 20 18 16 18 18 16
19 14 10 11 12 10 23 24 24 25 28 37 31 26 21 17 24 19 17 17 17 16 17 18 18 16 15 16 16 16 14 13
22 22 22 19 17 15 13 19 22 21 23 28 27 21 16 15 14 16 15 15 16 17 18 16 14 14 16 15 13 12 12 13
10 9 28 26 22 20 16 13 18 19 23 23 20 18 14 11 12 13 14 15 15 14 14 13 13 13 12 12 10 11 12 15
12 9 21 26 27 24 21 17 12 14 14 14 14 13 13 11 12 14 14 12 13 13 12 12 12 11 11 10 11 12 10 8
17 19 25 27 25 24 22 19 18 16 12 12 12 13 13 14 14 15 15 13 13 14 14 12 11 11 10 9 8 8 10 11
Wind_Direction
170 176 168 168 172 169 167 157 151 145 151 160 164 174 191 199 199 198 205 214 222 215 218 219 224 227 225 231 227 217 223 220
154 148 160 170 172 165 156 156 159 159 169 179 181 182 198 203 209 212 217 219 230 226 224 225 228 234 238 240 236 222 220 218
165 153 160 164 160 159 154 157 161 165 174 185 189 195 204 212 209 217 226 226 223 225 230 233 235 239 240 243 234 231 227 228
172 166 168 165 164 167 169 171 175 180 190 191 199 205 209 210 213 212 221 226 233 233 235 234 239 242 245 248 241 237 235 232
177 176 179 183 181 180 182 181 185 194 195 203 200 204 211 214 216 215 219 225 229 235 241 243 241 243 240 242 243 248 244 237
177 186 190 195 192 193 193 196 199 200 201 202 206 211 219 220 219 215 218 223 230 238 245 247 245 241 241 247 249 246 240 239
190 194 194 199 202 205 208 205 209 207 204 206 216 219 218 219 220 219 219 225 231 234 242 251 251 242 242 243 251 262 254 245
184 192 193 198 204 207 211 208 211 213 211 209 211 220 222 217 218 220 226 228 229 237 242 248 249 241 239 246 263 260 262 247
192 196 202 202 203 208 210 210 211 217 219 220 216 214 217 223 223 218 222 229 238 240 240 242 255 248 245 255 258 259 256 250
196 201 205 207 206 206 211 214 216 214 218 222 227 225 222 224 220 218 225 232 237 241 242 244 250 244 255 260 264 265 258 249
206 200 207 210 213 213 215 217 219 221 221 222 227 231 233 227 234 231 223 231 238 242 231 239 240 248 257 267 269 263 253 254
164 215 211 213 216 216 219 218 220 224 225 226 227 231 235 235 236 233 250 243 237 245 242 248 239 253 260 258 256 256 250 240
222 211 170 212 214 220 222 220 221 223 227 228 226 228 230 235 247 201 244 245 237 236 244 238 242 246 248 252 253 241 232 235
187 197 192 174 215 218 220 217 210 214 235 254 245 238 231 247 238 254 239 221 231 239 229 241 247 237 245 237 219 225 230 243
186 191 190 176 200 208 201 208 211 225 211 236 247 252 248 209 194 208 218 221 226 233 234 245 237 233 220 212 218 230 233 237
189 193 177 196 202 202 197 210 226 213 222 231 239 227 195 197 188 196 208 213 219 232 227 217 211 217 210 211 220 219 226 243
177 167 180 189 205 218 205 168 175 193 209 215 218 214 198 207 206 215 217 218 214 209 204 193 191 193 200 195 206 218 245 266
192 170 193 191 199 212 220 213 189 174 176 189 197 213 215 212 217 203 197 191 190 182 178 177 171 180 189 204 230 251 248 253
195 199 193 192 195 203 214 221 235 235 222 197 188 198 206 205 187 183 171 173 177 175 173 167 174 192 210 217 227 235 247 262